Home > Weather > Artigas > Past weeks

Flag for Uruguay Weather for the Past 2 Weeks in Artigas, Uruguay

Now
75 °F

Clear.


Feels Like: 74 °F
Forecast: 75 / 90 °F
Wind: 3 mph from East

Location: Paso De Los Libres Aerodrome

Current Time: Feb 13, 2016 at 9:59:47 PM

Latest Report: Feb 13, 2016 at 9:00 PM


Visibility: 10 mi

Pressure: 29.74 "Hg

Humidity: 94%

Dew point: 73 °F

Location of ArtigasLocation

Historic Weather in Artigas — Graph

°F

Artigas Temperature Yesterday

Maximum temperature yesterday: 93 °F (at 2:00 PM)
Minimum temperature yesterday: 75 °F (at 5:00 AM)
Average temperature yesterday: 84 °F

High & Low Weather Summary for the Past Weeks

 TemperatureHumidityPressure
High97 °F (Feb 7, 3:00 PM)100% (Jan 30, 4:00 AM)30.07 "Hg (Jan 30, 4:00 AM)
Low66 °F (Feb 1, 5:00 AM)31% (Feb 4, 4:00 PM)29.65 "Hg (Feb 13, 3:00 AM)
Average80 °F77%29.88 "Hg
* Reported Jan 29 8:00 PM — Feb 13 8:00 PM, Artigas, Weather by CustomWeather, © 2016

Note: Actual official high and low records may vary slightly from our data, if they occured in-between our weather recording intervals... More about our weather records

Advertising

Artigas Weather History for the Previous 24 Hours

 ConditionsComfort  
Time TempWeatherWind HumidityBarometerVisibility
8:00 PM
Sat, Feb 13
77 °FPassing clouds.6 mph89%29.74 "HgN/A
7:00 PM77 °FPartly cloudy.15 mph89%29.65 "HgN/A
5:00 PM75 °FThunderstorms. Partly sunny.16 mph89%29.71 "Hg4 mi
4:00 PM73 °FThunderstorms. More clouds than sun.18 mph100%29.74 "HgN/A
3:00 PM73 °FThunderstorms. Mostly cloudy.28 mph94%29.74 "Hg3 mi
2:00 PM93 °FBroken clouds.18 mph63%29.68 "HgN/A
1:00 PM93 °FScattered clouds.20 mph63%29.68 "HgN/A
12:00 PM93 °FScattered clouds.21 mph63%29.71 "HgN/A
11:00 AM91 °FScattered clouds.22 mph67%29.71 "HgN/A
10:00 AM88 °FSunny.16 mph79%29.71 "Hg10 mi
9:00 AM84 °FSunny.10 mph84%29.68 "Hg10 mi
8:00 AM82 °FSunny.10 mph89%29.65 "Hg10 mi
7:00 AM81 °FSunny.12 mph89%29.68 "Hg10 mi
6:00 AM81 °FSunny.9 mph89%29.68 "Hg10 mi
5:00 AM81 °FClear.3 mph89%29.68 "Hg10 mi
4:00 AM81 °FClear.6 mph89%29.65 "Hg10 mi
3:00 AM81 °FClear.6 mph94%29.65 "Hg10 mi
2:00 AM81 °FClear.6 mph89%29.68 "Hg10 mi
1:00 AM81 °FClear.6 mph89%29.68 "Hg10 mi
12:00 AM81 °FClear.5 mph89%29.71 "Hg10 mi
11:00 PM
Fri, Feb 12
81 °FClear.7 mph89%29.68 "Hg10 mi
10:00 PM82 °FClear.8 mph84%29.68 "Hg10 mi
Weather by CustomWeather, © 2016

See weather overviewHow to use our weather pages